Location: Ferchesar
(52.6477°N, 12.4298°E)
Time: 10:06:34
(UTC+01:00)

S-56A Canister/Altair - Pass Details

Date: 08 December 2021
Orbit: 633 x 2499 km, 38.9° (Epoch: 19 January)

Event Time Altitude Azimuth Distance (km) Brightness Sun altitude
Rises 21:24:04 0° 208° (SSW) 5,883 12.0 -47.7°
Enters shadow 21:27:29 - 200° (SSW) 5,071 11.6 -48.1°
Reaches altitude 10° 21:29:30 10° 195° (SSW) 4,616 - -48.4°
Maximum altitude 21:37:30 21° 154° (SSE) 3,325 - -49.4°
Drops below altitude 10° 21:43:55 10° 111° (ESE) 3,593 - -50.2°
Sets 21:47:26 0° 95° (E) 4,267 - -50.6°
